,,,PA_Meas_PMT16A,,PR_Meas_QMR101_102,,RH_Meas_QMH101,,SR_Meas_QMS101,,TA_Meas_QMH101,,GenWind,,GenWind,
date,time,status,PA,status,PR,status,RH,status,SR,status,TA,status,DirAvg,status,SpdAvg,
2011-02-01, 00:00:04,VALID,998.843,VALID,0,VALID,88.29,VALID,0,VALID,24.3452,VALID,276,VALID,0.121875,
2011-02-01, 00:01:04,VALID,998.809,VALID,0,VALID,88.2747,VALID,0,VALID,24.3257,VALID,276,VALID,0.0078125,
2011-02-01, 00:02:04,VALID,998.825,VALID,0,VALID,88.3739,VALID,0,VALID,24.2866,VALID,276,VALID,0,
2011-02-01, 00:03:04,VALID,998.814,VALID,0,VALID,88.3357,VALID,0,VALID,24.2476,VALID,276,VALID,0.236719,
2011-02-01, 00:04:04,VALID,998.865,VALID,0.5,VALID,88.4807,VALID,0,VALID,24.2086,VALID,278,VALID,0.497266,
2011-02-01, 00:05:04,VALID,998.858,VALID,0,VALID,88.5646,VALID,0,VALID,24.2086,VALID,280,VALID,0.260547,
2011-02-01, 00:06:04,VALID,998.823,VALID,0,VALID,88.5341,VALID,0,VALID,24.1696,VALID,280,VALID,0,
2011-02-01, 00:07:04,VALID,998.847,VALID,0,VALID,88.7706,VALID,0,VALID,24.1696,VALID,255,VALID,0.190625,
2011-02-01, 00:08:04,VALID,998.853,VALID,0,VALID,88.8698,VALID,0,VALID,24.1696,VALID,255,VALID,0.0707031,
2011-02-01, 00:09:04,VALID,998.865,VALID,0,VALID,88.8622,VALID,0,VALID,24.15,VALID,255,VALID,0,
2011-02-01, 00:10:04,VALID,998.856,VALID,0,VALID,88.8698,VALID,0,VALID,24.111,VALID,255,VALID,0,
2011-02-01, 00:11:04,VALID,998.871,VALID,0,VALID,89.0071,VALID,0,VALID,24.0915,VALID,255,VALID,0,
2011-02-01, 00:12:04,VALID,998.87,VALID,0,VALID,89.1826,VALID,0,VALID,24.072,VALID,255,VALID,0,
2011-02-01, 00:13:04,VALID,998.828,VALID,0,VALID,89.381,VALID,0,VALID,24.0915,VALID,255,VALID,0.381641,
2011-02-01, 00:14:04,VALID,998.815,VALID,0,VALID,89.4649,VALID,0,VALID,24.0915,VALID,236,VALID,0.190234,
2011-02-01, 00:15:04,VALID,998.838,VALID,0,VALID,89.4191,VALID,0,VALID,24.0933,VALID,236,VALID,0.0917969,
2011-02-01, 00:16:04,VALID,998.823,VALID,0,VALID,89.3734,VALID,0,VALID,24.0329,VALID,236,VALID,0.317969,
2011-02-01, 00:17:04,VALID,998.829,VALID,0,VALID,89.4039,VALID,0,VALID,23.9939,VALID,236,VALID,0.0191406,
2011-02-01, 00:18:04,VALID,998.821,VALID,0,VALID,89.5031,VALID,0,VALID,23.9939,VALID,110,VALID,0.488672,
2011-02-01, 00:19:04,VALID,998.844,VALID,0,VALID,89.5641,VALID,0,VALID,23.9744,VALID,125,VALID,0.120703,
2011-02-01, 00:20:04,VALID,998.784,VALID,0,VALID,89.8235,VALID,0,VALID,24.0134,VALID,274,VALID,0.556641,
2011-02-01, 00:21:04,VALID,998.801,VALID,0,VALID,89.9151,VALID,0,VALID,24.111,VALID,274,VALID,0.456641,
2011-02-01, 00:22:04,VALID,998.766,VALID,0,VALID,89.8235,VALID,0,VALID,24.1305,VALID,274,VALID,0.371875,
2011-02-01, 00:23:04,VALID,998.805,VALID,0,VALID,89.6175,VALID,0,VALID,24.15,VALID,243,VALID,0.393359,
2011-02-01, 00:24:04,VALID,998.792,VALID,0,VALID,89.4344,VALID,0,VALID,24.15,VALID,232,VALID,0.519922,
2011-02-01, 00:25:04,VALID,998.748,VALID,0,VALID,89.4039,VALID,0.112286,VALID,24.1482,VALID,228,VALID,0.258984,
2011-02-01, 00:26:04,VALID,998.726,VALID,0,VALID,89.4573,VALID,0,VALID,24.1696,VALID,228,VALID,0.0753906,
2011-02-01, 00:27:04,VALID,998.709,VALID,0,VALID,89.4802,VALID,0,VALID,24.1696,VALID,228,VALID,0,
2011-02-01, 00:28:04,VALID,998.683,VALID,0,VALID,89.5183,VALID,0,VALID,24.1696,VALID,228,VALID,0,
2011-02-01, 00:29:04,VALID,998.662,VALID,0,VALID,89.5183,VALID,0,VALID,24.1287,VALID,228,VALID,0,
2011-02-01, 00:30:04,VALID,998.663,VALID,0,VALID,89.4344,VALID,0,VALID,24.15,VALID,228,VALID,0,
2011-02-01, 00:31:04,VALID,998.656,VALID,0,VALID,89.381,VALID,0,VALID,24.15,VALID,228,VALID,0,
2011-02-01, 00:32:04,VALID,998.615,VALID,0,VALID,89.3963,VALID,0,VALID,24.111,VALID,228,VALID,0,
2011-02-01, 00:33:04,VALID,998.595,VALID,0,VALID,89.4497,VALID,0,VALID,24.111,VALID,228,VALID,0,
2011-02-01, 00:34:04,VALID,998.581,VALID,0,VALID,89.5031,VALID,0,VALID,24.0915,VALID,228,VALID,0.468359,
2011-02-01, 00:35:04,VALID,998.601,VALID,0,VALID,89.5794,VALID,0.112286,VALID,24.111,VALID,228,VALID,0.123438,
2011-02-01, 00:36:04,VALID,998.601,VALID,0,VALID,89.6328,VALID,0,VALID,24.0897,VALID,292,VALID,0.429688,
2011-02-01, 00:37:04,VALID,998.591,VALID,0,VALID,89.7243,VALID,0,VALID,24.1891,VALID,280,VALID,1.28008,
2011-02-01, 00:38:04,VALID,998.56,VALID,0,VALID,89.5336,VALID,0,VALID,24.2866,VALID,318,VALID,0.527344,
2011-02-01, 00:39:04,VALID,998.579,VALID,0,VALID,89.2132,VALID,0,VALID,24.3257,VALID,346,VALID,0.679688,
2011-02-01, 00:40:04,VALID,998.54,VALID,0,VALID,88.8698,VALID,0,VALID,24.4037,VALID,293,VALID,1.08828,
2011-02-01, 00:41:04,VALID,998.537,VALID,0,VALID,88.5036,VALID,0,VALID,24.4623,VALID,256,VALID,1.13125,
2011-02-01, 00:42:04,VALID,998.539,VALID,0,VALID,87.8398,VALID,0,VALID,24.5404,VALID,282,VALID,2.07461,
2011-02-01, 00:43:04,VALID,998.526,VALID,0,VALID,87.2905,VALID,0,VALID,24.638,VALID,222,VALID,0.615625,
2011-02-01, 00:44:04,VALID,998.469,VALID,0,VALID,87.0082,VALID,0,VALID,24.638,VALID,209,VALID,1.68086,
2011-02-01, 00:45:04,VALID,998.476,VALID,0,VALID,86.6267,VALID,0,VALID,24.716,VALID,252,VALID,1.12695,
2011-02-01, 00:46:04,VALID,998.48,VALID,0,VALID,86.497,VALID,0,VALID,24.716,VALID,212,VALID,0.973047,
2011-02-01, 00:47:04,VALID,998.49,VALID,0,VALID,86.5199,VALID,0,VALID,24.716,VALID,253,VALID,0.370703,
2011-02-01, 00:48:04,VALID,998.496,VALID,0,VALID,86.703,VALID,0,VALID,24.6965,VALID,259,VALID,0.548437,
2011-02-01, 00:49:04,VALID,998.425,VALID,0,VALID,86.8327,VALID,0,VALID,24.638,VALID,321,VALID,0.398438,
2011-02-01, 00:50:04,VALID,998.447,VALID,0,VALID,87.0234,VALID,0,VALID,24.5794,VALID,296,VALID,0.706641,
2011-02-01, 00:51:04,VALID,998.388,VALID,0,VALID,87.1074,VALID,0,VALID,24.5794,VALID,309,VALID,1.13633,
2011-02-01, 00:52:04,VALID,998.371,VALID,0,VALID,87.0921,VALID,0,VALID,24.5794,VALID,256,VALID,0.551953,
2011-02-01, 00:53:04,VALID,998.365,VALID,0,VALID,87.1532,VALID,0,VALID,24.5404,VALID,298,VALID,0.711328,
2011-02-01, 00:54:04,VALID,998.373,VALID,0,VALID,87.1684,VALID,0,VALID,24.5404,VALID,182,VALID,0.542188,
2011-02-01, 00:55:04,VALID,998.349,VALID,0,VALID,87.2676,VALID,0,VALID,24.5209,VALID,182,VALID,0,
2011-02-01, 00:56:04,VALID,998.353,VALID,0,VALID,87.4507,VALID,0,VALID,24.5013,VALID,295,VALID,0.852344,
2011-02-01, 00:57:04,VALID,998.381,VALID,0,VALID,87.5423,VALID,0,VALID,24.4818,VALID,292,VALID,0.539453,
2011-02-01, 00:58:04,VALID,998.381,VALID,0,VALID,87.6338,VALID,0,VALID,24.4623,VALID,312,VALID,0.416797,
2011-02-01, 00:59:04,VALID,998.366,VALID,0,VALID,87.7559,VALID,0,VALID,24.4428,VALID,310,VALID,0.754687,
2011-02-01, 01:00:04,VALID,998.317,VALID,0,VALID,87.8703,VALID,0,VALID,24.4428,VALID,276,VALID,0.524219,
2011-02-01, 01:01:04,VALID,998.303,VALID,0,VALID,88.0077,VALID,0,VALID,24.4233,VALID,281,VALID,0.31875,
2011-02-01, 01:02:04,VALID,998.282,VALID,0,VALID,88.1984,VALID,0,VALID,24.4037,VALID,281,VALID,0.255859,
2011-02-01, 01:03:04,VALID,998.263,VALID,0,VALID,88.412,VALID,0,VALID,24.3647,VALID,281,VALID,0.292578,
2011-02-01, 01:04:04,VALID,998.247,VALID,0,VALID,88.5494,VALID,0,VALID,24.3257,VALID,281,VALID,0.151562,
2011-02-01, 01:05:04,VALID,998.215,VALID,0,VALID,88.6562,VALID,0,VALID,24.3062,VALID,281,VALID,0.271875,
2011-02-01, 01:06:04,VALID,998.193,VALID,0,VALID,88.7554,VALID,0,VALID,24.2866,VALID,281,VALID,0.209375,
2011-02-01, 01:07:04,VALID,998.159,VALID,0,VALID,88.8851,VALID,0,VALID,24.2671,VALID,281,VALID,0.240625,
2011-02-01, 01:08:04,VALID,998.131,VALID,0,VALID,89.0453,VALID,0,VALID,24.2476,VALID,286,VALID,0.183203,
2011-02-01, 01:09:04,VALID,998.12,VALID,0,VALID,89.1368,VALID,0,VALID,24.2281,VALID,288,VALID,0.313281,
2011-02-01, 01:10:04,VALID,998.086,VALID,0,VALID,89.1445,VALID,0,VALID,24.2281,VALID,287,VALID,0.507813,
2011-02-01, 01:11:04,VALID,998.067,VALID,0,VALID,89.175,VALID,0,VALID,24.2281,VALID,288,VALID,0.330469,
2011-02-01, 01:12:04,VALID,998.017,VALID,0,VALID,89.2132,VALID,0,VALID,24.2086,VALID,295,VALID,0.339063,
2011-02-01, 01:13:04,VALID,997.944,VALID,0,VALID,89.2055,VALID,0,VALID,24.2086,VALID,296,VALID,0.469141,
2011-02-01, 01:14:04,VALID,997.923,VALID,0,VALID,89.1521,VALID,0,VALID,24.2299,VALID,297,VALID,0.261328,
2011-02-01, 01:15:04,VALID,997.905,VALID,0,VALID,89.114,VALID,0,VALID,24.2086,VALID,297,VALID,0.181641,
2011-02-01, 01:16:04,VALID,997.891,VALID,0,VALID,89.1521,VALID,0,VALID,24.2104,VALID,297,VALID,0.00664063,
2011-02-01, 01:17:04,VALID,997.844,VALID,0,VALID,89.2513,VALID,0,VALID,24.1891,VALID,297,VALID,0.185937,
2011-02-01, 01:18:04,VALID,997.853,VALID,0,VALID,89.3963,VALID,0,VALID,24.15,VALID,297,VALID,0.08125,
2011-02-01, 01:19:04,VALID,997.847,VALID,0,VALID,89.4954,VALID,0,VALID,24.15,VALID,297,VALID,0,
2011-02-01, 01:20:04,VALID,997.849,VALID,0,VALID,89.5412,VALID,0,VALID,24.1305,VALID,297,VALID,0,
2011-02-01, 01:21:04,VALID,997.853,VALID,0,VALID,89.6251,VALID,0,VALID,24.111,VALID,297,VALID,0.0621094,
2011-02-01, 01:22:04,VALID,997.82,VALID,0,VALID,89.7243,VALID,0,VALID,24.1305,VALID,297,VALID,0.220703,
2011-02-01, 01:23:04,VALID,997.819,VALID,0,VALID,89.7854,VALID,0,VALID,24.1305,VALID,297,VALID,0.211719,
2011-02-01, 01:24:04,VALID,997.804,VALID,0,VALID,89.8159,VALID,0,VALID,24.111,VALID,265,VALID,0.321094,
2011-02-01, 01:25:04,VALID,997.759,VALID,0,VALID,89.8006,VALID,0,VALID,24.1305,VALID,265,VALID,0.134766,
2011-02-01, 01:26:04,VALID,997.754,VALID,0,VALID,89.793,VALID,0,VALID,24.15,VALID,265,VALID,0,
2011-02-01, 01:27:04,VALID,997.736,VALID,0,VALID,89.7777,VALID,0,VALID,24.15,VALID,260,VALID,0.615234,
2011-02-01, 01:28:04,VALID,997.694,VALID,0,VALID,89.587,VALID,0,VALID,24.1891,VALID,267,VALID,0.433203,
2011-02-01, 01:29:04,VALID,997.658,VALID,0,VALID,89.381,VALID,0,VALID,24.2281,VALID,267,VALID,0.275781,
2011-02-01, 01:30:04,VALID,997.64,VALID,0,VALID,89.2132,VALID,0.112286,VALID,24.2476,VALID,263,VALID,0.465625,
2011-02-01, 01:31:04,VALID,997.564,VALID,0,VALID,89.0377,VALID,0,VALID,24.2885,VALID,234,VALID,0.25,
2011-02-01, 01:32:04,VALID,997.549,VALID,0,VALID,88.9385,VALID,0,VALID,24.2476,VALID,234,VALID,0.00507812,
2011-02-01, 01:33:04,VALID,997.538,VALID,0,VALID,88.9843,VALID,0,VALID,24.2476,VALID,234,VALID,0.469531,
2011-02-01, 01:34:04,VALID,997.555,VALID,0,VALID,88.8469,VALID,0,VALID,24.2671,VALID,265,VALID,0.903125,
2011-02-01, 01:35:04,VALID,997.547,VALID,0,VALID,88.5112,VALID,0,VALID,24.3257,VALID,289,VALID,0.992969,
2011-02-01, 01:36:04,VALID,997.503,VALID,0,VALID,88.3815,VALID,0,VALID,24.347,VALID,290,VALID,0.685938,
2011-02-01, 01:37:04,VALID,997.484,VALID,0,VALID,88.4197,VALID,0,VALID,24.3062,VALID,279,VALID,0.515234,
2011-02-01, 01:38:04,VALID,997.45,VALID,0,VALID,88.4197,VALID,0,VALID,24.347,VALID,257,VALID,0.541797,
2011-02-01, 01:39:04,VALID,997.427,VALID,0,VALID,88.2747,VALID,0,VALID,24.347,VALID,285,VALID,0.819922,
2011-02-01, 01:40:04,VALID,997.428,VALID,0,VALID,88.1145,VALID,0,VALID,24.3861,VALID,304,VALID,0.714063,
2011-02-01, 01:41:04,VALID,997.362,VALID,0,VALID,88.1374,VALID,0,VALID,24.3647,VALID,289,VALID,0.900781,
2011-02-01, 01:42:04,VALID,997.33,VALID,0,VALID,88.0382,VALID,0,VALID,24.3647,VALID,277,VALID,0.944141,
2011-02-01, 01:43:04,VALID,997.263,VALID,0,VALID,88.0687,VALID,0,VALID,24.3842,VALID,295,VALID,1.4793,
2011-02-01, 01:44:04,VALID,997.229,VALID,0,VALID,88.0153,VALID,0,VALID,24.3647,VALID,206,VALID,1.02773,
2011-02-01, 01:45:04,VALID,997.187,VALID,0,VALID,88.0077,VALID,0,VALID,24.3647,VALID,278,VALID,1.40664,
2011-02-01, 01:46:04,VALID,997.102,VALID,0,VALID,88.0382,VALID,0,VALID,24.3647,VALID,252,VALID,2.30938,
2011-02-01, 01:47:04,VALID,997.113,VALID,0.5,VALID,88.206,VALID,0,VALID,24.3257,VALID,268,VALID,2.48984,
2011-02-01, 01:48:04,VALID,997.097,VALID,0,VALID,88.5799,VALID,0,VALID,24.2671,VALID,266,VALID,0.955078,
2011-02-01, 01:49:04,VALID,997.078,VALID,0.5,VALID,88.9843,VALID,0,VALID,24.2086,VALID,276,VALID,0.778906,
2011-02-01, 01:50:04,VALID,997.023,VALID,0,VALID,89.2818,VALID,0,VALID,24.15,VALID,325,VALID,1.025,
2011-02-01, 01:51:04,VALID,997.007,VALID,0,VALID,89.5565,VALID,0,VALID,24.072,VALID,286,VALID,2.43047,
2011-02-01, 01:52:04,VALID,996.987,VALID,0.5,VALID,89.8006,VALID,0,VALID,24.0525,VALID,286,VALID,1.50352,
2011-02-01, 01:53:04,VALID,996.935,VALID,0,VALID,90.0066,VALID,0,VALID,24.0348,VALID,254,VALID,1.29375,
2011-02-01, 01:54:04,VALID,996.885,VALID,0,VALID,90.1287,VALID,0,VALID,23.9939,VALID,257,VALID,0.938672,
2011-02-01, 01:55:04,VALID,996.89,VALID,0,VALID,90.2126,VALID,0,VALID,23.9939,VALID,266,VALID,1.38711,
2011-02-01, 01:56:04,VALID,996.865,VALID,0,VALID,90.2966,VALID,0,VALID,23.9939,VALID,263,VALID,0.809766,
2011-02-01, 01:57:04,VALID,996.867,VALID,0,VALID,90.3271,VALID,0,VALID,23.9939,VALID,274,VALID,1.44531,
2011-02-01, 01:58:04,VALID,996.819,VALID,0,VALID,90.3042,VALID,0,VALID,23.9939,VALID,257,VALID,0.746094,
2011-02-01, 01:59:04,VALID,996.81,VALID,0,VALID,90.2889,VALID,0,VALID,24.0153,VALID,258,VALID,1.08789,
2011-02-01, 02:00:04,VALID,996.777,VALID,0,VALID,90.3347,VALID,0,VALID,23.9744,VALID,230,VALID,0.573047,
2011-02-01, 02:01:04,VALID,996.753,VALID,0,VALID,90.3728,VALID,0,VALID,23.9744,VALID,271,VALID,0.693359,
2011-02-01, 02:02:04,VALID,996.731,VALID,0,VALID,90.4339,VALID,0,VALID,23.9762,VALID,230,VALID,0.621094,
2011-02-01, 02:03:04,VALID,996.736,VALID,0,VALID,90.4644,VALID,0,VALID,23.9549,VALID,246,VALID,0.770312,
2011-02-01, 02:04:04,VALID,996.736,VALID,0,VALID,90.5407,VALID,0,VALID,23.9549,VALID,235,VALID,0.671094,
2011-02-01, 02:05:04,VALID,996.722,VALID,0,VALID,90.5865,VALID,0,VALID,23.9549,VALID,236,VALID,0.432031,
2011-02-01, 02:06:04,VALID,996.722,VALID,0,VALID,90.5941,VALID,0,VALID,23.9549,VALID,240,VALID,0.416797,
2011-02-01, 02:07:04,VALID,996.718,VALID,0,VALID,90.617,VALID,0,VALID,23.9549,VALID,231,VALID,0.433203,
2011-02-01, 02:08:04,VALID,996.67,VALID,0,VALID,90.6399,VALID,0,VALID,23.9549,VALID,234,VALID,0.903125,
2011-02-01, 02:09:04,VALID,996.665,VALID,0,VALID,90.6704,VALID,0,VALID,23.9549,VALID,279,VALID,0.969531,
2011-02-01, 02:10:04,VALID,996.664,VALID,0,VALID,90.6704,VALID,0,VALID,23.9549,VALID,271,VALID,0.478125,
2011-02-01, 02:11:04,VALID,996.657,VALID,0,VALID,90.678,VALID,0,VALID,23.9354,VALID,268,VALID,0.260156,
2011-02-01, 02:12:04,VALID,996.659,VALID,0,VALID,90.6704,VALID,0,VALID,23.9549,VALID,235,VALID,1.16992,
2011-02-01, 02:13:04,VALID,996.66,VALID,0,VALID,90.6323,VALID,0,VALID,23.9939,VALID,278,VALID,0.694141,
2011-02-01, 02:14:04,VALID,996.663,VALID,0,VALID,90.5941,VALID,0,VALID,23.9957,VALID,285,VALID,0.269141,
2011-02-01, 02:15:04,VALID,996.634,VALID,0,VALID,90.556,VALID,0,VALID,23.9744,VALID,251,VALID,0.702734,
2011-02-01, 02:16:04,VALID,996.603,VALID,0,VALID,90.5331,VALID,0,VALID,23.9939,VALID,246,VALID,0.683984,
2011-02-01, 02:17:04,VALID,996.643,VALID,0,VALID,90.4644,VALID,0,VALID,24.0329,VALID,251,VALID,0.398047,
2011-02-01, 02:18:04,VALID,996.653,VALID,0,VALID,90.411,VALID,0,VALID,24.0134,VALID,253,VALID,0.898828,
2011-02-01, 02:19:04,VALID,996.654,VALID,0,VALID,90.3423,VALID,0,VALID,24.0329,VALID,256,VALID,0.424609,
2011-02-01, 02:20:04,VALID,996.638,VALID,0,VALID,90.35,VALID,0,VALID,24.0329,VALID,256,VALID,0.0703125,
2011-02-01, 02:21:04,VALID,996.634,VALID,0,VALID,90.3576,VALID,0,VALID,24.0348,VALID,256,VALID,0,
2011-02-01, 02:22:04,VALID,996.617,VALID,0,VALID,90.3881,VALID,0,VALID,23.9744,VALID,256,VALID,0.0738281,
2011-02-01, 02:23:04,VALID,996.57,VALID,0,VALID,90.4186,VALID,0,VALID,23.9762,VALID,237,VALID,0.478906,
2011-02-01, 02:24:04,VALID,996.584,VALID,0,VALID,90.4339,VALID,0,VALID,23.9762,VALID,215,VALID,0.585938,
2011-02-01, 02:25:04,VALID,996.54,VALID,0,VALID,90.3957,VALID,0,VALID,23.9762,VALID,215,VALID,0.299609,
2011-02-01, 02:26:04,VALID,996.556,VALID,0,VALID,90.3805,VALID,0,VALID,23.9762,VALID,191,VALID,0.305859,
2011-02-01, 02:27:04,VALID,996.602,VALID,0,VALID,90.35,VALID,0,VALID,23.9744,VALID,240,VALID,0.588672,
2011-02-01, 02:28:04,VALID,996.584,VALID,0,VALID,90.3347,VALID,0,VALID,23.9957,VALID,240,VALID,0,
2011-02-01, 02:29:04,VALID,996.614,VALID,0,VALID,90.35,VALID,0,VALID,23.9957,VALID,240,VALID,0.00078125,
2011-02-01, 02:30:04,VALID,996.6,VALID,0,VALID,90.3805,VALID,0,VALID,23.9549,VALID,240,VALID,0.00195313,
2011-02-01, 02:31:04,VALID,996.598,VALID,0,VALID,90.3805,VALID,0,VALID,23.9354,VALID,247,VALID,0.5,
2011-02-01, 02:32:04,VALID,996.633,VALID,0,VALID,90.3194,VALID,0,VALID,23.9159,VALID,254,VALID,0,
2011-02-01, 02:33:04,VALID,996.62,VALID,0,VALID,90.3423,VALID,0,VALID,23.9159,VALID,254,VALID,0.417969,
2011-02-01, 02:34:04,VALID,996.602,VALID,0,VALID,90.2966,VALID,0,VALID,23.9159,VALID,254,VALID,0.0738281,
2011-02-01, 02:35:04,VALID,996.55,VALID,0,VALID,90.2203,VALID,0,VALID,23.8963,VALID,247,VALID,0.215234,
2011-02-01, 02:36:04,VALID,996.519,VALID,0,VALID,90.1287,VALID,0,VALID,23.9159,VALID,268,VALID,0.178125,
2011-02-01, 02:37:04,VALID,996.521,VALID,0,VALID,89.9609,VALID,0,VALID,23.9159,VALID,299,VALID,0.157031,
2011-02-01, 02:38:04,VALID,996.473,VALID,0,VALID,89.6938,VALID,0,VALID,23.9549,VALID,204,VALID,0.83125,
2011-02-01, 02:39:04,VALID,996.495,VALID,0,VALID,89.3047,VALID,0,VALID,24.0134,VALID,244,VALID,1.13945,
2011-02-01, 02:40:04,VALID,996.484,VALID,0,VALID,88.145,VALID,0,VALID,24.15,VALID,223,VALID,1.04297,
2011-02-01, 02:41:04,VALID,996.427,VALID,0,VALID,87.2752,VALID,0,VALID,24.2281,VALID,241,VALID,1.65234,
2011-02-01, 02:42:04,VALID,996.429,VALID,0,VALID,86.3597,VALID,0,VALID,24.2866,VALID,252,VALID,0.868359,
2011-02-01, 02:43:04,VALID,996.41,VALID,0,VALID,86.0926,VALID,0,VALID,24.3452,VALID,262,VALID,0.894141,
2011-02-01, 02:44:04,VALID,996.413,VALID,0,VALID,85.5357,VALID,0,VALID,24.3842,VALID,243,VALID,1.06367,
2011-02-01, 02:45:04,VALID,996.372,VALID,0,VALID,85.3831,VALID,0,VALID,24.4037,VALID,261,VALID,0.280469,
2011-02-01, 02:46:04,VALID,996.378,VALID,0,VALID,85.2152,VALID,0,VALID,24.4037,VALID,240,VALID,1.07852,
2011-02-01, 02:47:04,VALID,996.371,VALID,0,VALID,84.9482,VALID,0,VALID,24.4233,VALID,281,VALID,1.10938,
2011-02-01, 02:48:04,VALID,996.354,VALID,0,VALID,84.7651,VALID,0,VALID,24.4428,VALID,243,VALID,0.892969,
2011-02-01, 02:49:04,VALID,996.311,VALID,0,VALID,84.849,VALID,0,VALID,24.4623,VALID,202,VALID,0.780078,
2011-02-01, 02:50:04,VALID,996.305,VALID,0,VALID,84.3836,VALID,0,VALID,24.4428,VALID,224,VALID,0.817969,
2011-02-01, 02:51:04,VALID,996.318,VALID,0,VALID,84.2997,VALID,0,VALID,24.4818,VALID,228,VALID,0.793359,
2011-02-01, 02:52:04,VALID,996.27,VALID,0,VALID,84.4217,VALID,0,VALID,24.4623,VALID,228,VALID,0.0414063,
2011-02-01, 02:53:04,VALID,996.26,VALID,0,VALID,84.2386,VALID,0,VALID,24.4818,VALID,237,VALID,0.687891,
2011-02-01, 02:54:04,VALID,996.269,VALID,0,VALID,84.1089,VALID,0,VALID,24.4818,VALID,224,VALID,0.516406,
2011-02-01, 02:55:04,VALID,996.212,VALID,0,VALID,82.583,VALID,0,VALID,24.5599,VALID,243,VALID,2.41563,
2011-02-01, 02:56:04,VALID,996.206,VALID,0,VALID,82.4228,VALID,0,VALID,24.716,VALID,232,VALID,1.20547,
2011-02-01, 02:57:04,VALID,996.156,VALID,0,VALID,82.5906,VALID,0,VALID,24.6965,VALID,216,VALID,1.24023,
2011-02-01, 02:58:04,VALID,996.188,VALID,0,VALID,82.789,VALID,0,VALID,24.638,VALID,223,VALID,0.633594,
2011-02-01, 02:59:04,VALID,996.138,VALID,0,VALID,83.14,VALID,0,VALID,24.5794,VALID,242,VALID,0.239063,
2011-02-01, 03:00:04,VALID,996.14,VALID,0,VALID,83.5901,VALID,0,VALID,24.5209,VALID,239,VALID,0.289453,
2011-02-01, 03:01:04,VALID,996.125,VALID,0,VALID,83.8114,VALID,0,VALID,24.4428,VALID,239,VALID,0.138281,
2011-02-01, 03:02:04,VALID,996.104,VALID,0,VALID,84.1395,VALID,0,VALID,24.4056,VALID,277,VALID,0.670313,
2011-02-01, 03:03:04,VALID,996.07,VALID,0,VALID,83.5977,VALID,0,VALID,24.3842,VALID,282,VALID,1.04766,
2011-02-01, 03:04:04,VALID,996.061,VALID,0,VALID,83.3383,VALID,0,VALID,24.4642,VALID,273,VALID,1.04805,
2011-02-01, 03:05:04,VALID,996.062,VALID,0,VALID,83.4986,VALID,0,VALID,24.4818,VALID,252,VALID,0.5375,
2011-02-01, 03:06:04,VALID,996.078,VALID,0,VALID,83.6435,VALID,0,VALID,24.4233,VALID,271,VALID,0.595312,
2011-02-01, 03:07:04,VALID,996.046,VALID,0,VALID,83.2926,VALID,0,VALID,24.4233,VALID,212,VALID,0.937109,
2011-02-01, 03:08:04,VALID,996.045,VALID,0,VALID,83.3002,VALID,0,VALID,24.4623,VALID,254,VALID,0.764844,
2011-02-01, 03:09:04,VALID,996.041,VALID,0,VALID,83.2926,VALID,0,VALID,24.4428,VALID,231,VALID,0.698047,
2011-02-01, 03:10:04,VALID,996.03,VALID,0,VALID,83.4223,VALID,0,VALID,24.4233,VALID,253,VALID,0.611719,
2011-02-01, 03:11:04,VALID,996.011,VALID,0,VALID,83.0484,VALID,0,VALID,24.4037,VALID,217,VALID,0.517578,
2011-02-01, 03:12:04,VALID,996.008,VALID,0,VALID,83.1705,VALID,0,VALID,24.4428,VALID,243,VALID,0.812109,
2011-02-01, 03:13:04,VALID,996.007,VALID,0,VALID,83.056,VALID,0,VALID,24.4428,VALID,212,VALID,0.571875,
2011-02-01, 03:14:04,VALID,995.998,VALID,0,VALID,83.2392,VALID,0,VALID,24.4037,VALID,245,VALID,0.749219,
2011-02-01, 03:15:04,VALID,995.957,VALID,0,VALID,83.1018,VALID,0,VALID,24.4037,VALID,227,VALID,0.938672,
2011-02-01, 03:16:04,VALID,995.958,VALID,0,VALID,82.9569,VALID,0,VALID,24.4446,VALID,222,VALID,0.992578,
2011-02-01, 03:17:04,VALID,995.958,VALID,0,VALID,82.7661,VALID,0,VALID,24.4233,VALID,246,VALID,1.27227,
2011-02-01, 03:18:04,VALID,995.992,VALID,0,VALID,82.5143,VALID,0,VALID,24.4623,VALID,219,VALID,0.724609,
2011-02-01, 03:19:04,VALID,996.003,VALID,0,VALID,82.2778,VALID,0,VALID,24.4818,VALID,259,VALID,0.903516,
2011-02-01, 03:20:04,VALID,995.996,VALID,0,VALID,82.3923,VALID,0,VALID,24.4818,VALID,212,VALID,0.960547,
2011-02-01, 03:21:04,VALID,996.022,VALID,0,VALID,82.3389,VALID,0,VALID,24.4818,VALID,215,VALID,0.622266,
2011-02-01, 03:22:04,VALID,996.056,VALID,0,VALID,82.4533,VALID,0,VALID,24.4623,VALID,218,VALID,0.61875,
2011-02-01, 03:23:04,VALID,996.058,VALID,0,VALID,82.5143,VALID,0,VALID,24.4233,VALID,228,VALID,0.75625,
2011-02-01, 03:24:04,VALID,996.045,VALID,0,VALID,82.377,VALID,0,VALID,24.4623,VALID,194,VALID,0.544531,
2011-02-01, 03:25:04,VALID,996.041,VALID,0,VALID,82.11,VALID,0,VALID,24.4818,VALID,223,VALID,0.787891,
2011-02-01, 03:26:04,VALID,996.038,VALID,0,VALID,82.4152,VALID,0,VALID,24.4818,VALID,235,VALID,0.274219,
2011-02-01, 03:27:04,VALID,996.026,VALID,0,VALID,82.1329,VALID,0,VALID,24.4623,VALID,227,VALID,0.718359,
2011-02-01, 03:28:04,VALID,996.03,VALID,0,VALID,82.0718,VALID,0,VALID,24.5013,VALID,220,VALID,0.845312,
2011-02-01, 03:29:04,VALID,996.017,VALID,0,VALID,82.4991,VALID,0,VALID,24.4623,VALID,221,VALID,0.301172,
2011-02-01, 03:30:04,VALID,996.046,VALID,0,VALID,82.5906,VALID,0,VALID,24.4233,VALID,226,VALID,0.583594,
2011-02-01, 03:31:04,VALID,996.042,VALID,0,VALID,82.5067,VALID,0,VALID,24.4233,VALID,242,VALID,0.700391,
2011-02-01, 03:32:04,VALID,996.035,VALID,0,VALID,82.2549,VALID,0,VALID,24.4623,VALID,212,VALID,0.646484,
2011-02-01, 03:33:04,VALID,996.013,VALID,0,VALID,82.6364,VALID,0,VALID,24.4623,VALID,217,VALID,0.260938,
2011-02-01, 03:34:04,VALID,996.03,VALID,0,VALID,82.7585,VALID,0,VALID,24.4233,VALID,217,VALID,0.05625,
2011-02-01, 03:35:04,VALID,996.067,VALID,0,VALID,82.6593,VALID,0,VALID,24.4037,VALID,220,VALID,0.349609,
2011-02-01, 03:36:04,VALID,996.018,VALID,0,VALID,82.5601,VALID,0,VALID,24.4037,VALID,212,VALID,0.588672,
2011-02-01, 03:37:04,VALID,996.072,VALID,0,VALID,82.6517,VALID,0,VALID,24.4037,VALID,211,VALID,0.232812,
2011-02-01, 03:38:04,VALID,996.096,VALID,0,VALID,82.7966,VALID,0,VALID,24.3842,VALID,212,VALID,0.328516,
2011-02-01, 03:39:04,VALID,996.092,VALID,0,VALID,82.8195,VALID,0,VALID,24.3842,VALID,241,VALID,0.701563,
2011-02-01, 03:40:04,VALID,996.08,VALID,0,VALID,83.0255,VALID,0,VALID,24.3647,VALID,283,VALID,0.178516,
2011-02-01, 03:41:04,VALID,996.127,VALID,0,VALID,82.9263,VALID,0,VALID,24.3647,VALID,283,VALID,0.282813,
2011-02-01, 03:42:04,VALID,996.096,VALID,0,VALID,83.0026,VALID,0,VALID,24.3842,VALID,282,VALID,0.180469,
2011-02-01, 03:43:04,VALID,996.097,VALID,0,VALID,82.7509,VALID,0,VALID,24.3452,VALID,282,VALID,0.392188,
2011-02-01, 03:44:04,VALID,996.092,VALID,0,VALID,82.4304,VALID,0,VALID,24.4037,VALID,235,VALID,0.921484,
2011-02-01, 03:45:04,VALID,996.139,VALID,0,VALID,82.2778,VALID,0,VALID,24.4818,VALID,243,VALID,0.647656,